Chapel Hill, NC

1:34 PM EDT on August 31, 2016 (GMT -0400)
Williams

Weather History for KIGX - August, 2014

Change the Weather History Date:

Tuesday, August 19, 2014

  Actual Average Record
Temperature  
Mean Temperature 76 °F -  
Max Temperature 87 °F 88 °F 106 °F (1988)
Min Temperature 66 °F 65 °F 50 °F (1977)
Cooling Degree Days 11    
Growing Degree Days 26 (Base 50)    
Moisture  
Dew Point 70 °F    
Average Humidity 87    
Maximum Humidity 100    
Minimum Humidity 59    
Precipitation  
Precipitation 0.00 in - - ()
Sea Level Pressure  
Sea Level Pressure 29.84 in    
Wind  
Wind Speed 2 mph (NW)    
Max Wind Speed 8 mph    
Max Gust Speed -    
Visibility 7 miles    
Events      
Averages and records for this station are not official NWS values.
T = Trace of Precipitation, MM = Missing Value Source: NWS Daily Summary

Daily Weather History Graph

Daily Weather History Graph

Search for Another Location

Airport or City:

Trip Planner

Search our weather history database for the weather conditions in past years. The results will help you decide how hot, cold, wet, or windy it might be!

Date:

Astronomy

Aug. 19, 2014 Rise Set
Actual Time 6:37 AM EDT 8:01 PM EDT
Civil Twilight 6:11 AM EDT 8:28 PM EDT
Nautical Twilight 5:38 AM EDT 9:00 PM EDT
Astronomical Twilight 5:05 AM EDT 9:33 PM EDT
Moon 1:31 AM EDT (8/19) 3:52 PM EDT (8/19)
Length of Visible Light 14h 16m
Length of Day
13h 23m
Waning Crescent, 29% of the Moon is Illuminated
Aug 19
Waning Crescent
Aug 25
New
Sep 2
First Quarter
Sep 8
Full
Sep 15
Last Quarter

Hourly Weather History & Observations

Time (EDT) Temp. Heat Index Dew Point Humidity Pressure Visibility Wind Dir Wind Speed Gust Speed Precip Events Conditions
12:44 AM 72.0 °F - 71.1 °F 97% 29.81 in 5.0 mi West 3.5 mph - 0.00 in   Overcast
12:56 AM 72.0 °F - 70.0 °F 93% 29.80 in 7.0 mi West 3.5 mph - 0.00 in   Mostly Cloudy
1:09 AM 72.0 °F - 70.0 °F 93% 29.82 in 8.0 mi SSW 3.5 mph - N/A   Mostly Cloudy
1:56 AM 72.0 °F - 70.0 °F 93% 29.80 in 9.0 mi Calm Calm - N/A   Overcast
2:56 AM 71.1 °F - 69.1 °F 93% 29.78 in 10.0 mi Calm Calm - N/A   Scattered Clouds
3:47 AM 69.1 °F - 68.0 °F 96% 29.80 in 1.8 mi Calm Calm - N/A   Partly Cloudy
3:56 AM 70.0 °F - 68.0 °F 93% 29.78 in 1.5 mi Calm Calm - N/A   Partly Cloudy
4:00 AM 70.0 °F - 68.0 °F 93% 29.79 in 3.0 mi Calm Calm - N/A   Partly Cloudy
4:56 AM 69.1 °F - 66.9 °F 93% 29.78 in 2.5 mi Calm Calm - N/A   Clear
5:04 AM 69.1 °F - 68.0 °F 96% 29.80 in 1.0 mi Calm Calm - N/A   Mist
5:13 AM 69.1 °F - 66.9 °F 93% 29.80 in 0.8 mi Calm Calm - N/A   Mist
5:23 AM 68.0 °F - 66.9 °F 96% 29.81 in 1.5 mi Calm Calm - N/A   Partly Cloudy
5:56 AM 68.0 °F - 66.9 °F 96% 29.80 in 2.5 mi Calm Calm - N/A   Partly Cloudy
6:18 AM 69.1 °F - 66.9 °F 93% 29.83 in 4.0 mi Calm Calm - N/A   Partly Cloudy
6:29 AM 68.0 °F - 66.9 °F 96% 29.83 in 2.5 mi Calm Calm - N/A   Clear
6:39 AM 68.0 °F - 66.9 °F 96% 29.83 in 2.0 mi Calm Calm - N/A   Partly Cloudy
6:49 AM 68.0 °F - 66.9 °F 96% 29.83 in 7.0 mi West 3.5 mph - N/A   Clear
6:56 AM 66.9 °F - 66.9 °F 100% 29.82 in 7.0 mi WNW 3.5 mph - N/A   Clear
7:56 AM 71.1 °F - 69.1 °F 93% 29.83 in 9.0 mi Calm Calm - N/A   Clear
8:43 AM 75.0 °F - 71.1 °F 87% 29.86 in 10.0 mi North 6.9 mph - N/A   Scattered Clouds
8:56 AM 73.0 °F - 70.0 °F 90% 29.84 in 10.0 mi NNW 5.8 mph - N/A   Partly Cloudy
9:10 AM 73.9 °F - 71.1 °F 91% 29.86 in 10.0 mi Variable 4.6 mph - N/A   Mostly Cloudy
9:35 AM 75.0 °F - 71.1 °F 87% 29.87 in 10.0 mi WNW 6.9 mph - N/A   Overcast
9:56 AM 75.0 °F - 71.1 °F 87% 29.86 in 10.0 mi NW 4.6 mph - N/A   Overcast
10:25 AM 78.1 °F - 72.0 °F 81% 29.88 in 10.0 mi WNW 6.9 mph - N/A   Mostly Cloudy
10:56 AM 79.0 °F - 71.1 °F 77% 29.86 in 10.0 mi NW 3.5 mph - N/A   Overcast
11:56 AM 81.0 °F 84.9 °F 71.1 °F 72% 29.87 in 10.0 mi NNW 8.1 mph - N/A   Overcast
12:34 PM 81.0 °F 84.4 °F 70.0 °F 69% 29.89 in 10.0 mi Variable 3.5 mph - N/A   Scattered Clouds
12:56 PM 81.0 °F 84.4 °F 70.0 °F 69% 29.88 in 10.0 mi NNW 6.9 mph - N/A   Mostly Cloudy
1:56 PM 82.9 °F 87.0 °F 70.0 °F 65% 29.86 in 10.0 mi NNE 8.1 mph - N/A   Partly Cloudy
2:56 PM 84.9 °F 90.1 °F 71.1 °F 63% 29.84 in 10.0 mi Calm Calm - N/A   Scattered Clouds
3:56 PM 84.9 °F 89.4 °F 70.0 °F 61% 29.82 in 10.0 mi East 3.5 mph - N/A   Partly Cloudy
5:56 PM 86.0 °F 90.7 °F 70.0 °F 59% 29.82 in 10.0 mi ENE 4.6 mph - N/A   Scattered Clouds
6:56 PM 79.0 °F - 73.9 °F 84% 29.83 in 9.0 mi Calm Calm - N/A   Clear
7:56 PM 78.1 °F - 73.9 °F 87% 29.85 in 7.0 mi Calm Calm - N/A   Clear
8:56 PM 75.9 °F - 73.0 °F 91% 29.87 in 7.0 mi Calm Calm - N/A   Mostly Cloudy
9:56 PM 75.0 °F - 73.0 °F 94% 29.88 in 5.0 mi Calm Calm - N/A   Partly Cloudy
10:56 PM 73.9 °F - 72.0 °F 93% 29.89 in 4.0 mi Calm Calm - N/A   Clear
11:56 PM 73.0 °F - 72.0 °F 96% 29.90 in 4.0 mi Calm Calm - N/A   Clear